(165) Loreley
ephemeris date magn radius delta ra dec elong phase
Today23 Jun 202613.52.986 AU2.927 AU00h15m+10°40'83.4°19.8°
Opposition29 Sep 202612.23.062 AU2.083 AU00h01m+16°34'165.0°4.9°
(165) Loreley - 2026-06-23
astro.vanbuitenen.nl


 
-1 year
-1 month
-1 day
Now
+1 day
+1 month
+1 year

The interactive orbit chart above shows the body's path through the solar system and its position at the given date. Green and blue lines are shown perpendicular to the ecliptic plane: Green if the path is above the ecliptic plane, blue if it is below. (Left-click and drag to rotate the view; Right-click and drag to move the view; Use scroll wheel to zoom in our out.)

The orbital elements of Loreley are:

            e (Eccentricity)                : 0.0834760
            a (Semimajor axis)              : 3.1263686
            i (Inclination)                 : 11.23379
            Ω (Longitude of ascending node) : 302.42658
            ω (Argument of perihelion)      : 344.36384
            M (Mean anomaly)                : 51.00567
            Epoch                           : 2026 Jun 09

            L (Longitude of perihelion)     : 287.07574
            B (Latitude of perihelion)      : -3.00984
            P (Orbital period in years)     : 5.53            
        

The light curve chart below shows the estimated development of the minor planet's magnitude.


The all-sky chart below shows the path of the minor planet over the same period as the light curve. The current position is marked yellow.





The following chart shows the path of the minor planet in the next few days. The field of view is optimized for (~10x50) binoculars and finderscopes.




Ephemerides:
Date       Time       RA (2000)    DEC (2000)    delta   radius  elong  phase   PA    magn
2026-06-23 00:00 UT   00 15 43.6   +10 40 01     2.927    2.986   83.4   19.8   247   13.5 
2026-06-23 06:09 UT   00 15 54.6   +10 42 18     2.924    2.986   83.6   19.8   247   13.5 
2026-06-24 00:00 UT   00 16 26.3   +10 48 52     2.915    2.987   84.1   19.8   247   13.5 
2026-06-25 00:00 UT   00 17 08.2   +10 57 39     2.902    2.988   84.9   19.8   247   13.5 
2026-06-26 00:00 UT   00 17 49.3   +11 06 23     2.889    2.988   85.6   19.8   247   13.5 
2026-06-27 00:00 UT   00 18 29.5   +11 15 03     2.877    2.989   86.3   19.8   247   13.5 
2026-06-28 00:00 UT   00 19 09.0   +11 23 40     2.864    2.990   87.1   19.8   247   13.5 
2026-06-29 00:00 UT   00 19 47.6   +11 32 13     2.852    2.991   87.8   19.9   247   13.5 
2026-06-30 00:00 UT   00 20 25.3   +11 40 43     2.839    2.991   88.6   19.9   247   13.5 
2026-07-01 00:00 UT   00 21 02.1   +11 49 09     2.826    2.992   89.3   19.9   246   13.4 
2026-07-02 00:00 UT   00 21 38.1   +11 57 31     2.814    2.993   90.1   19.9   246   13.4 
2026-07-03 00:00 UT   00 22 13.2   +12 05 50     2.801    2.994   90.8   19.9   246   13.4 
2026-07-04 00:00 UT   00 22 47.3   +12 14 04     2.789    2.994   91.6   19.8   246   13.4 
2026-07-05 00:00 UT   00 23 20.5   +12 22 15     2.776    2.995   92.3   19.8   246   13.4 
2026-07-06 00:00 UT   00 23 52.8   +12 30 21     2.763    2.996   93.1   19.8   246   13.4 
2026-07-07 00:00 UT   00 24 24.2   +12 38 24     2.751    2.996   93.9   19.8   246   13.4 
2026-07-08 00:00 UT   00 24 54.5   +12 46 22     2.738    2.997   94.6   19.8   246   13.4 
2026-07-09 00:00 UT   00 25 23.9   +12 54 15     2.726    2.998   95.4   19.7   245   13.4 
2026-07-10 00:00 UT   00 25 52.3   +13 02 05     2.713    2.999   96.2   19.7   245   13.4 
2026-07-11 00:00 UT   00 26 19.7   +13 09 49     2.701    2.999   97.0   19.7   245   13.3 
2026-07-12 00:00 UT   00 26 46.0   +13 17 29     2.688    3.000   97.8   19.6   245   13.3 
2026-07-13 00:00 UT   00 27 11.3   +13 25 04     2.676    3.001   98.6   19.6   245   13.3 
2026-07-14 00:00 UT   00 27 35.6   +13 32 34     2.664    3.002   99.4   19.5   245   13.3 
2026-07-15 00:00 UT   00 27 58.8   +13 39 60     2.651    3.002  100.2   19.5   245   13.3 
2026-07-16 00:00 UT   00 28 20.9   +13 47 20     2.639    3.003  101.0   19.4   244   13.3 
2026-07-17 00:00 UT   00 28 41.9   +13 54 35     2.627    3.004  101.8   19.3   244   13.3 
2026-07-18 00:00 UT   00 29 01.8   +14 01 44     2.614    3.005  102.6   19.3   244   13.3 
2026-07-19 00:00 UT   00 29 20.6   +14 08 48     2.602    3.005  103.4   19.2   244   13.3 
2026-07-20 00:00 UT   00 29 38.3   +14 15 47     2.590    3.006  104.2   19.1   244   13.2 
2026-07-21 00:00 UT   00 29 54.8   +14 22 40     2.578    3.007  105.1   19.0   244   13.2 
2026-07-22 00:00 UT   00 30 10.2   +14 29 27     2.566    3.008  105.9   19.0   243   13.2 
2026-07-23 00:00 UT   00 30 24.4   +14 36 09     2.554    3.008  106.7   18.9   243   13.2 


    Terminology:
            
    delta:  distance between minor planet and earth in AU
    radius: distance between minor planet and sun in AU
    magn:   magnitude (brightness) estimate    
    ra:     right ascension in hours (24h = 360deg)
    dec:    declination in degrees
    elong:  elongation in degrees (angle sun-earth-minor planet)    
    phase:  phase angle in degrees (angle sun-minor planet-earth)        
    AU:     Astronomical Unit (mean distance between earth and sun: 149597870.7 km
    

Orbital elements provided by the MPC (Minor Planet Center).
Calculations by a modified version of AAPlus, a C# implementation of the AA+ project by PJ Naughter from the algorithms presented in the book "Astronomical Algorithms" by Jean Meeus.
NGC2000 dso catalog and star labels from VizieR as provided by the Strasbourg astronomical Data Center.
Tycho2 catalog from the ESO archive.